TimeMST,TemperatureF,Dew PointF,Humidity,Sea Level PressureIn,VisibilityMPH,Wind Direction,Wind SpeedMPH,Gust SpeedMPH,PrecipitationIn,Events,Conditions,WindDirDegrees,DateUTC
12:53 AM,57.9,27.0,31,29.82,10.0,Calm,Calm,-,N/A,,Clear,0,2013-03-16 07:53:00
1:53 AM,57.9,28.0,32,29.80,10.0,Calm,Calm,-,N/A,,Clear,0,2013-03-16 08:53:00
2:53 AM,57.9,28.9,33,29.77,10.0,Calm,Calm,-,N/A,,Clear,0,2013-03-16 09:53:00
3:53 AM,57.0,28.0,33,29.75,10.0,Calm,Calm,-,N/A,,Clear,0,2013-03-16 10:53:00
4:53 AM,55.9,28.0,34,29.76,10.0,Calm,Calm,-,N/A,,Clear,0,2013-03-16 11:53:00
5:53 AM,54.0,28.9,38,29.78,10.0,Calm,Calm,-,N/A,,Clear,0,2013-03-16 12:53:00
6:53 AM,54.0,28.0,37,29.78,10.0,Calm,Calm,-,N/A,,Clear,0,2013-03-16 13:53:00
7:53 AM,57.0,30.9,37,29.79,10.0,Calm,Calm,-,N/A,,Partly Cloudy,0,2013-03-16 14:53:00
8:53 AM,62.1,28.0,28,29.79,10.0,Variable,3.5,-,N/A,,Clear,0,2013-03-16 15:53:00
9:53 AM,64.0,28.9,27,29.80,10.0,Calm,Calm,-,N/A,,Clear,0,2013-03-16 16:53:00
10:53 AM,64.0,30.0,28,29.81,10.0,NNW,5.8,-,N/A,,Overcast,340,2013-03-16 17:53:00
11:53 AM,69.1,28.9,22,29.78,10.0,Calm,Calm,-,N/A,,Clear,0,2013-03-16 18:53:00
12:53 PM,70.0,26.1,19,29.75,10.0,ENE,6.9,-,N/A,,Mostly Cloudy,60,2013-03-16 19:53:00
1:53 PM,68.0,21.0,17,29.73,10.0,WSW,11.5,28.8,N/A,,Overcast,240,2013-03-16 20:53:00
2:53 PM,68.0,27.0,21,29.72,10.0,North,15.0,-,N/A,,Overcast,10,2013-03-16 21:53:00
3:53 PM,70.0,23.0,17,29.69,10.0,ESE,3.5,-,N/A,,Scattered Clouds,110,2013-03-16 22:53:00
4:53 PM,70.0,23.0,17,29.69,10.0,Calm,Calm,-,N/A,,Clear,0,2013-03-16 23:53:00
5:53 PM,69.1,21.0,16,29.70,10.0,North,18.4,27.6,N/A,,Clear,350,2013-03-17 00:53:00
6:53 PM,64.9,23.0,20,29.70,10.0,Calm,Calm,-,N/A,,Partly Cloudy,0,2013-03-17 01:53:00
7:53 PM,62.1,24.1,23,29.71,10.0,South,4.6,-,N/A,,Clear,170,2013-03-17 02:53:00
8:53 PM,61.0,23.0,23,29.71,10.0,SW,5.8,-,N/A,,Clear,220,2013-03-17 03:53:00
9:53 PM,59.0,23.0,25,29.70,10.0,SSW,6.9,-,N/A,,Clear,200,2013-03-17 04:53:00
10:53 PM,57.9,24.1,27,29.70,10.0,SSW,8.1,-,N/A,,Clear,200,2013-03-17 05:53:00
11:53 PM,57.9,19.9,23,29.68,10.0,SSW,5.8,-,N/A,,Clear,210,2013-03-17 06:53:00